Location: Boiro
(42.6475°N, 8.8834°W)
Time: 14:49:28
(UTC+02:00)

Explorer 7 - Pass Details

Date: 30 June 2022
Orbit: 482 x 668 km, 50.3° (Epoch: 15 August)

Event Time Altitude Azimuth Distance (km) Brightness Sun altitude
Exits shadow 02:56:58 - 267° (W) 2,702 10.3 -24.0°
Reaches altitude 10° 02:58:40 10° 273° (W) 2,081 9.7 -24.0°
Maximum altitude 03:03:13 41° 343° (NNW) 948 8.4 -23.9°
Drops below altitude 10° 03:07:38 10° 55° (NE) 2,014 10.2 -23.8°
Sets 03:10:01 0° 62° (ENE) 2,893 11.0 -23.8°
